FW4622 Weather Reports


Display with metric or nautical units.
time (UTC)temp
F
wind
direction
speed
MPH
gust
MPH
rain 1hr
in
rain 24hr
in
rain mn
in
humidity
%
barometer
mb
20260509054204 72 261 0.0 1.0 0.00 0.00 0.00 78 1010.7
20260509053704 72 153 0.0 0.0 0.00 0.00 0.00 78 1010.3
20260509053204 72 164 1.0 2.0 0.00 0.00 0.00 78 1010.7
20260509052704 72 233 0.0 2.0 0.00 0.00 0.00 78 1011.2
20260509052204 72 256 0.0 1.0 0.00 0.00 0.00 78 1011.4
20260509051705 72 263 0.0 2.0 0.00 0.00 0.00 78 1011.4
20260509051205 72 278 0.0 1.0 0.00 0.00 0.00 79 1010.9
20260509050705 71 200 0.0 0.0 0.00 0.00 0.00 79 1010.4
20260509050204 71 167 0.0 1.0 0.00 0.00 0.00 78 1010.1
20260509045704 71 283 0.0 0.0 0.00 0.00 0.00 78 1010.0
20260509045204 72 283 0.0 2.0 0.00 0.00 0.00 78 1010.0
20260509044704 71 83 0.0 1.0 0.00 0.00 0.00 78 1009.7
20260509043704 72 154 1.0 2.0 0.00 0.00 0.00 77 1009.9
20260509043204 72 91 0.0 0.0 0.00 0.00 0.00 77 1010.0
20260509042704 72 91 0.0 1.0 0.00 0.00 0.00 77 1009.8
20260509042203 72 132 1.0 3.0 0.00 0.00 0.00 76 1009.7
20260509041704 72 121 2.0 3.0 0.00 0.00 0.00 76 1009.6
20260509041204 72 120 0.0 1.0 0.00 0.00 0.00 76 1010.1
20260509040704 73 13 0.0 1.0 0.00 0.00 0.00 76 1010.3
20260509040204 73 112 1.0 2.0 0.00 0.00 0.00 76 1010.2
20260509035704 73 113 1.0 1.0 0.00 0.00 0.00 75 1010.8
20260509035204 73 114 0.0 1.0 0.00 0.00 0.00 76 1010.8
20260509034704 73 113 0.0 1.0 0.00 0.00 0.00 76 1010.7
20260509034204 73 113 0.0 1.0 0.00 0.00 0.00 76 1010.6
20260509033704 72 153 0.0 1.0 0.00 0.00 0.00 76 1010.5
20260509033204 72 162 0.0 0.0 0.00 0.00 0.00 76 1010.3
20260509032704 72 162 0.0 0.0 0.00 0.00 0.00 76 1010.2
20260509032204 72 162 0.0 0.0 0.00 0.00 0.00 76 1010.1
20260509031204 72 15 0.0 2.0 0.00 0.00 0.00 76 1010.1
20260509030704 72 63 0.0 1.0 0.00 0.00 0.00 76 1010.0
20260509025704 72 146 0.0 0.0 0.00 0.00 0.00 76 1009.7
20260509024704 72 104 1.0 2.0 0.00 0.00 0.00 76 1009.6
20260509023204 72 127 0.0 1.0 0.00 0.00 0.00 76 1009.3
20260509022703 72 127 0.0 1.0 0.00 0.00 0.00 76 1009.2
20260509022204 73 99 0.0 2.0 0.00 0.00 0.00 76 1009.1
20260509021704 73 129 1.0 3.0 0.00 0.00 0.00 76 1009.1
20260509021203 73 153 1.0 3.0 0.00 0.00 0.00 76 1009.1
20260509020204 73 102 0.0 1.0 0.00 0.00 0.00 75 1009.0
20260509015704 73 115 1.0 6.0 0.00 0.00 0.00 75 1009.0
20260509015205 73 101 1.0 3.0 0.00 0.00 0.00 75 1009.0
20260509014704 73 86 1.0 3.0 0.00 0.00 0.00 75 1009.0
20260509014204 73 139 0.0 2.0 0.00 0.00 0.00 75 1009.0
20260509013704 73 126 0.0 3.0 0.00 0.00 0.00 74 1009.0
20260509013204 73 131 1.0 3.0 0.00 0.00 0.00 74 1008.9
20260509012704 73 138 0.0 2.0 0.00 0.00 0.00 74 1008.8
20260509012206 73 111 0.0 1.0 0.00 0.00 0.00 74 1008.7
20260509011704 73 100 0.0 3.0 0.00 0.00 0.00 74 1008.6
20260509011204 73 105 1.0 3.0 0.00 0.00 0.00 74 1008.5
20260509010704 74 129 1.0 2.0 0.00 0.00 0.00 73 1008.4
20260509010205 74 113 1.0 2.0 0.00 0.00 0.00 73 1008.4
20260509005704 74 82 0.0 3.0 0.00 0.00 0.00 73 1008.3
20260509004204 74 119 1.0 3.0 0.00 0.00 0.00 73 1008.2
20260509003704 74 138 1.0 3.0 0.00 0.00 0.00 72 1008.1
20260509003203 74 152 1.0 3.0 0.00 0.00 0.00 72 1008.0
20260509002704 75 155 1.0 3.0 0.00 0.00 0.00 72 1008.0
20260509002205 75 146 1.0 6.0 0.00 0.00 0.00 72 1008.0
20260509001704 75 117 0.0 3.0 0.00 0.00 0.00 71 1008.0
20260509001204 75 117 1.0 3.0 0.00 0.00 0.00 71 1008.1
20260509000704 75 96 1.0 3.0 0.00 0.00 0.00 71 1008.2
20260509000204 75 132 0.0 2.0 0.00 0.00 0.00 71 1008.3
20260508235204 75 114 1.0 3.0 0.00 0.00 0.00 70 1008.6
20260508234703 75 109 1.0 3.0 0.00 0.00 0.00 70 1008.7
20260508233203 76 119 2.0 3.0 0.00 0.00 0.00 69 1008.7
20260508232704 76 108 1.0 6.0 0.00 0.00 0.00 69 1008.7
20260508232204 76 106 0.0 3.0 0.00 0.00 0.00 68 1008.8
20260508231704 77 102 1.0 3.0 0.00 0.00 0.00 68 1008.8
20260508231203 77 114 1.0 3.0 0.00 0.00 0.00 68 1008.8
20260508230704 77 129 2.0 6.0 0.00 0.00 0.00 67 1008.8
20260508230203 77 74 1.0 3.0 0.00 0.00 0.00 68 1008.8
20260508225703 77 109 1.0 5.0 0.00 0.00 0.00 67 1008.8
20260508225204 77 119 1.0 5.0 0.00 0.00 0.00 66 1008.9
20260508224704 77 183 1.0 3.0 0.00 0.00 0.00 66 1008.9
20260508224204 78 51 1.0 5.0 0.00 0.00 0.00 66 1008.8
20260508223704 79 139 1.0 3.0 0.00 0.00 0.00 65 1008.8
20260508223204 79 270 0.0 6.0 0.00 0.00 0.00 66 1008.7
20260508222703 78 141 1.0 3.0 0.00 0.00 0.00 66 1008.7
20260508221704 79 90 2.0 7.0 0.00 0.00 0.00 65 1008.7
20260508221203 79 8 2.0 3.0 0.00 0.00 0.00 64 1008.6
20260508215204 81 176 1.0 6.0 0.00 0.00 0.00 63 1008.6
20260508214204 79 94 1.0 3.0 0.00 0.00 0.00 64 1008.7
20260508213704 78 193 1.0 3.0 0.00 0.00 0.00 65 1008.7
20260508212704 78 130 2.0 7.0 0.00 0.00 0.00 66 1008.6
20260508212203 77 124 1.0 7.0 0.00 0.00 0.00 69 1008.6
20260508211703 77 108 3.0 6.0 0.00 0.00 0.00 66 1008.8
20260508211204 77 166 1.0 5.0 0.00 0.00 0.00 68 1008.9
20260508210704 75 149 1.0 7.0 0.00 0.00 0.00 69 1009.1
20260508210204 75 107 2.0 5.0 0.00 0.00 0.00 69 1009.4
20260508205205 75 175 1.0 3.0 0.00 0.00 0.00 68 1010.1
20260508204704 75 82 1.0 3.0 0.00 0.00 0.00 68 1010.2
20260508204204 75 252 0.0 2.0 0.00 0.00 0.00 67 1010.3
20260508203704 76 218 0.0 2.0 0.00 0.00 0.00 67 1010.5
20260508203205 76 160 0.0 3.0 0.00 0.00 0.00 66 1010.6
20260508202705 77 195 0.0 2.0 0.00 0.00 0.00 66 1010.7
20260508202204 77 238 0.0 2.0 0.00 0.00 0.00 66 1010.6
20260508201705 77 161 1.0 3.0 0.00 0.00 0.00 65 1010.6
20260508200704 78 269 1.0 3.0 0.00 0.00 0.00 64 1010.5
20260508200205 79 94 0.0 3.0 0.00 0.00 0.00 64 1010.6
20260508195704 80 225 1.0 2.0 0.00 0.00 0.00 63 1010.5
20260508194704 80 122 1.0 6.0 0.00 0.00 0.00 61 1010.6
20260508194204 80 153 0.0 2.0 0.00 0.00 0.00 63 1010.6
20260508192705 80 311 0.0 3.0 0.00 0.00 0.00 62 1010.9
20260508191704 80 147 2.0 3.0 0.00 0.00 0.00 61 1010.8
20260508191205 80 154 2.0 5.0 0.00 0.00 0.00 62 1010.9
20260508190704 80 150 2.0 5.0 0.00 0.00 0.00 61 1010.9
20260508190204 80 135 1.0 5.0 0.00 0.00 0.00 61 1010.9
20260508185704 81 107 1.0 5.0 0.00 0.00 0.00 60 1011.0
20260508185204 82 149 2.0 5.0 0.00 0.00 0.00 59 1011.1
20260508184204 81 98 1.0 3.0 0.00 0.00 0.00 60 1011.1
20260508183705 82 74 0.0 2.0 0.00 0.00 0.00 59 1011.2
20260508183205 81 148 2.0 3.0 0.00 0.00 0.00 60 1011.2
20260508182704 80 145 1.0 5.0 0.00 0.00 0.00 59 1011.4
20260508182204 80 124 2.0 5.0 0.00 0.00 0.00 60 1011.5
20260508181704 79 110 1.0 3.0 0.00 0.00 0.00 61 1011.6
20260508181204 79 78 2.0 5.0 0.00 0.00 0.00 60 1011.7
20260508180705 79 113 1.0 3.0 0.00 0.00 0.00 60 1011.8
20260508180204 79 143 1.0 3.0 0.00 0.00 0.00 60 1012.0
20260508175704 79 101 2.0 5.0 0.00 0.00 0.00 59 1012.0
20260508175204 79 120 1.0 5.0 0.00 0.00 0.00 60 1012.0
20260508174704 79 115 1.0 5.0 0.00 0.00 0.00 62 1012.1
20260508174204 78 29 1.0 5.0 0.00 0.00 0.00 62 1012.2
20260508173704 79 111 1.0 3.0 0.00 0.00 0.00 60 1012.1
20260508172204 78 43 0.0 2.0 0.00 0.00 0.00 61 1012.3
20260508171705 78 177 0.0 2.0 0.00 0.00 0.00 62 1012.5
20260508171204 76 135 1.0 3.0 0.00 0.00 0.00 63 1012.6
20260508170704 76 75 0.0 3.0 0.00 0.00 0.00 63 1012.8
20260508170205 75 253 1.0 2.0 0.00 0.00 0.00 63 1013.0
20260508165704 75 127 0.0 2.0 0.00 0.00 0.00 63 1013.1
20260508165204 74 132 1.0 3.0 0.00 0.00 0.00 63 1013.3
20260508164204 75 88 2.0 5.0 0.00 0.00 0.00 62 1013.5
20260508162204 74 77 1.0 2.0 0.00 0.00 0.00 65 1013.8
20260508161704 73 71 0.0 3.0 0.00 0.00 0.00 66 1013.8
20260508161204 73 110 2.0 6.0 0.00 0.00 0.00 65 1013.8
20260508160704 72 136 2.0 3.0 0.00 0.00 0.00 64 1013.9
20260508160204 72 100 1.0 5.0 0.00 0.00 0.00 67 1013.9
20260508155704 71 140 1.0 3.0 0.00 0.00 0.00 66 1013.9
20260508155204 71 124 1.0 3.0 0.00 0.00 0.00 66 1014.1
20260508154705 71 140 1.0 5.0 0.00 0.00 0.00 65 1014.2
20260508154205 71 129 1.0 3.0 0.00 0.00 0.00 65 1014.2
20260508153704 70 104 0.0 3.0 0.00 0.00 0.00 67 1014.2
20260508152704 69 128 0.0 2.0 0.00 0.00 0.00 67 1014.3
20260508151204 69 87 1.0 3.0 0.00 0.00 0.00 66 1014.4
20260508150704 69 120 1.0 5.0 0.00 0.00 0.00 67 1014.5
20260508150204 69 134 0.0 6.0 0.00 0.00 0.00 67 1014.5
20260508145704 69 113 1.0 3.0 0.00 0.00 0.00 67 1014.3
20260508145204 69 147 1.0 3.0 0.00 0.00 0.00 67 1014.2
20260508144204 69 117 1.0 3.0 0.00 0.00 0.00 66 1014.3
20260508143705 69 212 0.0 5.0 0.00 0.00 0.00 67 1014.4
20260508143204 69 100 2.0 7.0 0.00 0.00 0.00 66 1014.4
20260508142204 70 153 2.0 6.0 0.00 0.00 0.00 66 1014.6
20260508141704 69 98 1.0 3.0 0.00 0.00 0.00 68 1014.6
20260508140704 69 114 1.0 6.0 0.00 0.00 0.00 69 1014.7
20260508135704 68 80 0.0 3.0 0.00 0.00 0.00 70 1014.7
20260508135204 67 130 0.0 3.0 0.00 0.00 0.00 70 1014.7
20260508134704 67 127 0.0 3.0 0.00 0.00 0.00 70 1014.6
20260508134204 67 174 1.0 2.0 0.00 0.00 0.00 71 1014.6
20260508133204 65 100 0.0 1.0 0.00 0.00 0.00 73 1014.5
20260508132704 64 107 0.0 2.0 0.00 0.00 0.00 74 1014.5
20260508132204 64 131 0.0 1.0 0.00 0.00 0.00 74 1014.7
20260508131704 64 295 0.0 2.0 0.00 0.00 0.00 74 1014.8
20260508131204 64 111 0.0 1.0 0.00 0.00 0.00 74 1014.8
20260508130703 64 118 0.0 3.0 0.00 0.00 0.00 74 1014.8
20260508130204 64 132 0.0 1.0 0.00 0.00 0.00 75 1014.7
20260508125703 63 136 0.0 1.0 0.00 0.00 0.00 75 1014.8
20260508125203 63 136 0.0 2.0 0.00 0.00 0.00 75 1014.9
20260508124704 63 77 0.0 0.0 0.00 0.00 0.00 76 1014.8
20260508124203 63 77 0.0 0.0 0.00 0.00 0.00 76 1014.7
20260508123704 63 77 0.0 0.0 0.00 0.00 0.00 76 1015.1
20260508123203 63 77 0.0 0.0 0.00 0.00 0.00 77 1015.1
20260508122204 62 77 0.0 0.0 0.00 0.00 0.00 77 1014.9
20260508121704 62 77 0.0 0.0 0.00 0.00 0.00 77 1014.8
20260508121204 62 77 0.0 0.0 0.00 0.00 0.00 77 1014.9
20260508115704 62 77 0.0 0.0 0.00 0.00 0.00 77 1015.1
20260508115203 62 77 0.0 0.0 0.00 0.00 0.00 77 1015.0
20260508114704 62 77 0.0 1.0 0.00 0.00 0.00 76 1015.0
20260508112703 62 135 0.0 1.0 0.00 0.00 0.00 75 1014.7
20260508112204 62 129 0.0 1.0 0.00 0.00 0.00 75 1014.8
20260508111704 63 51 0.0 0.0 0.00 0.00 0.00 74 1014.6
20260508111203 63 110 0.0 1.0 0.00 0.00 0.00 74 1014.7
20260508110204 63 226 0.0 1.0 0.00 0.00 0.00 74 1015.3
20260508105704 63 286 0.0 1.0 0.00 0.00 0.00 74 1015.6
20260508105204 63 301 0.0 1.0 0.00 0.00 0.00 75 1015.5
20260508104704 63 267 0.0 0.0 0.00 0.00 0.00 76 1015.2
20260508104203 62 271 0.0 1.0 0.00 0.00 0.00 77 1015.0
20260508103704 62 272 0.0 1.0 0.00 0.00 0.00 78 1014.7
20260508103203 62 117 0.0 0.0 0.00 0.00 0.00 78 1014.3
20260508102704 62 117 0.0 0.0 0.00 0.00 0.00 79 1014.1
20260508102204 62 117 0.0 0.0 0.00 0.00 0.00 79 1014.0
20260508101704 62 117 0.0 0.0 0.00 0.00 0.00 79 1014.1
20260508101204 62 117 0.0 0.0 0.00 0.00 0.00 79 1014.1
20260508100704 62 117 0.0 0.0 0.00 0.00 0.00 79 1014.1
20260508100204 62 117 0.0 0.0 0.00 0.00 0.00 78 1014.0
20260508095704 62 84 0.0 0.0 0.00 0.00 0.00 78 1014.0
20260508095203 62 153 0.0 0.0 0.00 0.00 0.00 78 1014.0
20260508094704 62 141 0.0 0.0 0.00 0.00 0.00 78 1013.9
20260508094204 63 270 0.0 0.0 0.00 0.00 0.00 78 1014.1
20260508093703 63 270 0.0 0.0 0.00 0.00 0.00 77 1014.2
20260508093203 63 270 0.0 0.0 0.00 0.00 0.00 77 1014.3
20260508092203 63 270 0.0 0.0 0.00 0.00 0.00 77 1014.3
20260508091704 63 270 0.0 0.0 0.00 0.00 0.00 77 1014.3
20260508090704 63 270 0.0 0.0 0.00 0.00 0.00 77 1014.3
20260508090204 63 270 0.0 0.0 0.00 0.00 0.00 77 1014.3
20260508085703 63 270 0.0 0.0 0.00 0.00 0.00 76 1014.4
20260508085204 63 189 0.0 0.0 0.00 0.00 0.00 77 1014.5
20260508084704 63 135 0.0 2.0 0.00 0.00 0.00 76 1014.4
20260508084205 63 133 0.0 2.0 0.00 0.00 0.00 76 1014.2
20260508083704 63 117 0.0 0.0 0.00 0.00 0.00 77 1014.2
20260508083205 63 18 0.0 0.0 0.00 0.00 0.00 77 1014.2
20260508082205 63 170 0.0 0.0 0.00 0.00 0.00 77 1015.0
20260508081704 63 277 0.0 0.0 0.00 0.00 0.00 76 1015.2
20260508081204 63 277 0.0 0.0 0.00 0.00 0.00 76 1015.3
20260508080704 63 277 0.0 0.0 0.00 0.00 0.00 75 1015.3
20260508080204 63 277 0.0 0.0 0.00 0.00 0.00 75 1015.4
20260508075704 63 276 0.0 0.0 0.00 0.00 0.00 75 1015.8
20260508075204 63 270 0.0 0.0 0.00 0.00 0.00 75 1016.0
20260508074705 63 269 0.0 0.0 0.00 0.00 0.00 75 1015.9
20260508074204 63 270 0.0 0.0 0.00 0.00 0.00 76 1015.8
20260508073704 62 248 0.0 0.0 0.00 0.00 0.00 76 1015.5
20260508073204 62 131 0.0 0.0 0.00 0.00 0.00 76 1015.1
20260508072205 62 131 0.0 0.0 0.00 0.00 0.00 76 1015.2
20260508071705 62 131 0.0 0.0 0.00 0.00 0.00 76 1015.4
20260508071204 62 131 0.0 0.0 0.00 0.00 0.00 76 1015.5
20260508070704 62 131 0.0 0.0 0.00 0.00 0.00 76 1015.4
20260508070204 61 131 0.0 0.0 0.00 0.00 0.00 76 1015.4
20260508065704 61 131 0.0 0.0 0.00 0.00 0.00 76 1015.5
20260508064704 61 131 0.0 0.0 0.00 0.00 0.00 76 1015.6
20260508064204 61 131 0.0 0.0 0.00 0.00 0.00 75 1016.0
20260508063704 62 131 0.0 0.0 0.00 0.00 0.00 75 1016.0
20260508063204 62 131 0.0 0.0 0.00 0.00 0.00 75 1015.9
20260508062704 61 131 0.0 0.0 0.00 0.00 0.00 76 1015.9
20260508061704 61 131 0.0 0.0 0.00 0.00 0.00 75 1016.1
20260508061204 61 131 0.0 0.0 0.00 0.00 0.00 75 1016.0
20260508060204 61 131 0.0 0.0 0.00 0.00 0.00 75 1016.0
20260508055704 61 131 0.0 0.0 0.00 0.00 0.00 75 1015.8
20260508055204 61 131 0.0 0.0 0.00 0.00 0.00 75 1016.0
20260508054704 61 131 0.0 0.0 0.00 0.00 0.00 75 1016.1